TimePDT,TemperatureF,Dew PointF,Humidity,Sea Level PressureIn,VisibilityMPH,Wind Direction,Wind SpeedMPH,Gust SpeedMPH,PrecipitationIn,Events,Conditions,WindDirDegrees,DateUTC
12:53 AM,70.0,53.1,55,29.90,10.0,SSE,6.9,-,N/A,,Partly Cloudy,160,2013-07-17 07:53:00
1:53 AM,63.0,60.1,90,29.91,10.0,SE,4.6,-,0.01,,Scattered Clouds,130,2013-07-17 08:53:00
2:53 AM,63.0,59.0,87,29.92,10.0,SE,5.8,-,N/A,,Clear,140,2013-07-17 09:53:00
3:53 AM,64.0,61.0,90,29.94,6.0,SSE,8.1,-,0.04,Rain,Light Rain,150,2013-07-17 10:53:00
4:53 AM,66.0,57.9,75,29.98,10.0,SSE,8.1,-,0.00,,Overcast,150,2013-07-17 11:53:00
5:53 AM,68.0,55.0,63,29.98,10.0,South,8.1,-,N/A,,Partly Cloudy,170,2013-07-17 12:53:00
6:53 AM,66.0,57.9,75,30.00,10.0,SSE,12.7,19.6,N/A,,Partly Cloudy,160,2013-07-17 13:53:00
7:53 AM,64.0,57.0,78,30.04,10.0,South,15.0,21.9,N/A,,Partly Cloudy,170,2013-07-17 14:53:00
8:53 AM,64.9,57.0,75,30.07,10.0,South,8.1,18.4,N/A,,Mostly Cloudy,180,2013-07-17 15:53:00
9:53 AM,66.9,57.9,73,30.08,10.0,SSE,18.4,26.5,0.00,,Clear,160,2013-07-17 16:53:00
10:53 AM,68.0,57.0,68,30.11,10.0,SSE,13.8,21.9,N/A,,Clear,160,2013-07-17 17:53:00
11:53 AM,69.1,55.9,63,30.12,10.0,South,12.7,20.7,N/A,,Clear,170,2013-07-17 18:53:00
12:53 PM,70.0,55.9,61,30.12,10.0,South,12.7,21.9,N/A,,Clear,170,2013-07-17 19:53:00
1:53 PM,70.0,55.9,61,30.13,10.0,South,12.7,24.2,N/A,,Clear,170,2013-07-17 20:53:00
2:53 PM,72.0,55.9,57,30.14,10.0,South,16.1,25.3,N/A,,Clear,170,2013-07-17 21:53:00
3:53 PM,72.0,57.0,59,30.15,10.0,South,11.5,21.9,N/A,,Clear,170,2013-07-17 22:53:00
4:53 PM,71.1,55.9,59,30.15,10.0,South,10.4,-,N/A,,Clear,180,2013-07-17 23:53:00
5:53 PM,69.1,55.9,63,30.15,10.0,South,11.5,18.4,N/A,,Clear,170,2013-07-18 00:53:00
6:53 PM,68.0,55.0,63,30.15,10.0,South,12.7,19.6,N/A,,Clear,170,2013-07-18 01:53:00
7:53 PM,66.0,55.0,68,30.17,10.0,South,12.7,-,N/A,,Clear,170,2013-07-18 02:53:00
8:53 PM,64.9,55.0,70,30.17,10.0,South,10.4,-,N/A,,Clear,170,2013-07-18 03:53:00
9:53 PM,63.0,54.0,72,30.19,10.0,South,9.2,-,N/A,,Clear,170,2013-07-18 04:53:00
10:53 PM,63.0,55.0,75,30.19,10.0,SSE,9.2,-,N/A,,Clear,160,2013-07-18 05:53:00
11:53 PM,62.1,54.0,75,30.20,10.0,SSE,6.9,-,N/A,,Clear,160,2013-07-18 06:53:00